Weather in Kuznetsk

Russia / Penza Oblast     53°07′09″N   46°36′04″E
temp.,
°C
wind,
m/s
gust,
m/s
humid.,
%
clouds,
%
prec.,
mm/h
press.,
hPa
HPBL,
m
23 october, sat
sat2300:00+10wsw614813 0.0 1009595
03:00+8wsw512825 0.0 1010444
06:00+6sw410905 0.0 1010240
09:00+9sw5127533 0.0 1011557
12:00+12wsw81544100 0.0 10121740
15:00+12wsw6124129 0.0 10121475
18:00+10wsw4858100 0.1 1013568
21:00+8sse3685100 1.6 1012359
24 october, sun
sun2400:00+8wnw5892100 2.1 1011880
03:00+5w378662 2.1 1012225
06:00+3w49905 0.0 1013299
09:00+5w59765 0.0 1014583
12:00+7w6858100 0.0 10151195
15:00+7w575637 0.0 10151366
18:00+6w4760100 0.0 1016783
21:00+5wsw396112 0.0 1015426
25 october, mon
mon2500:00+3w489099 0.0 1015627
03:00+2wnw4788100 0.0 1015627
06:00+2wnw4998100 0.5 1016531
09:00+1nw6977100 0.8 1019983
12:00+2nnw71076100 0.1 1021932
15:00+1nnw61071100 0.1 10241148
18:000nnw59656 0.0 1027881
21:00−2nnw3879100 0.0 1028239
26 october, tue
tue2600:00−2nw2478100 0.0 1029114
03:00−3wnw248167 0.0 103078
06:00−3wsw38805 0.0 1030189
09:00+1wsw510598 0.0 1029464
12:00+5wsw610465 0.0 1027810
15:00+5wsw611486 0.0 1026859
18:00+2wsw5135842 0.0 1026498
21:00+2wsw5136198 0.0 1026422
27 october, wed
wed2700:00+1wsw5136450 0.0 1026367
03:00+1wsw4136527 0.0 1026338
06:000wsw4136763 0.0 1026294
09:00+3wsw6145463 0.0 1025426
12:00+7wsw7123877 0.0 1024707
15:00+7sw61238100 0.0 1022790
18:00+4sw6144397 0.0 1022518
21:00+4sw61544100 0.0 1021548